User: anonymous   Login
Location: Newark
(46.7636°N, 1.8358°W)
Time: 01:01:05
(UTC+00:00)
Language:

Transit 4A - Orbit

View from above orbital plane
View from above orbital plane
View from above satellite
View from above satellite

Ground track
Ground track

The orbit data is extracted from the following two-line orbital elements,

1   116U 61015A   19293.95346529 -.00000051  00000-0  19528-4 0  9994
2   116  66.8096  76.1271 0076103 182.5221 177.5485 13.91760075958847
Epoch (UTC): 20 October 2019 22:52:59
Eccentricity: 0.0076103
inclination: 66.8096°
perigee height: 867 km
apogee height: 978 km
right ascension of ascending node: 76.1271°
argument of perigee: 182.5221°
revolutions per day: 13.91760075
mean anomaly at epoch: 177.5485°
orbit number at epoch: 95884

The dashed part of the orbit path shows where the satellite is in the earth's shadow,  

DLR